2022/12/25 00:00:00,83.9,-1.0
2022/12/25 00:10:00,84.0,-0.9
2022/12/25 00:20:00,84.1,-0.7
2022/12/25 00:30:00,84.5,-1.1
2022/12/25 00:40:00,84.5,-0.9
2022/12/25 00:50:00,84.7,-0.8
2022/12/25 01:00:00,84.5,-0.8
2022/12/25 01:10:00,84.2,-0.6
2022/12/25 01:20:00,83.9,-0.6
2022/12/25 01:30:00,83.8,-0.9
2022/12/25 01:40:00,83.8,-0.8
2022/12/25 01:50:00,83.6,-1.0
2022/12/25 02:00:00,83.5,-0.7
2022/12/25 02:10:00,83.3,-0.7
2022/12/25 02:20:00,83.3,-0.6
2022/12/25 02:30:00,83.5,-0.8
2022/12/25 02:40:00,83.6,-0.8
2022/12/25 02:50:00,83.4,-0.4
2022/12/25 03:00:00,83.3,-0.9
2022/12/25 03:10:00,83.2,-0.7
2022/12/25 03:20:00,83.0,-0.5
2022/12/25 03:30:00,82.9,-0.4
2022/12/25 03:40:00,82.7,-0.5
2022/12/25 03:50:00,82.6,-0.5
2022/12/25 04:00:00,82.4,-0.5
2022/12/25 04:10:00,82.4,-0.7
2022/12/25 04:20:00,82.3,-0.6
2022/12/25 04:30:00,82.2,-0.6
2022/12/25 04:40:00,82.1,-0.6
2022/12/25 04:50:00,82.1,-0.5
2022/12/25 05:00:00,82.1,-0.4
2022/12/25 05:10:00,82.2,-0.7
2022/12/25 05:20:00,82.1,-0.5
2022/12/25 05:30:00,82.0,-0.7
2022/12/25 05:40:00,81.9,-0.7
2022/12/25 05:50:00,81.8,-0.8
2022/12/25 06:00:00,81.7,-0.7
2022/12/25 06:10:00,81.6,-0.7
2022/12/25 06:20:00,81.5,-0.7
2022/12/25 06:30:00,81.4,-0.4
2022/12/25 06:40:00,81.3,-0.5
2022/12/25 06:50:00,81.2,-0.5
2022/12/25 07:00:00,81.0,-0.7
2022/12/25 07:10:00,80.9,-0.4
2022/12/25 07:20:00,80.7,-0.6
2022/12/25 07:30:00,80.6,-0.4
2022/12/25 07:40:00,80.5,-0.5
2022/12/25 07:50:00,80.4,-0.4
2022/12/25 08:00:00,80.3,-0.2
2022/12/25 08:10:00,80.3,-0.6
2022/12/25 08:20:00,80.2,-0.4
2022/12/25 08:30:00,80.0,-0.2
2022/12/25 08:40:00,79.8, 0.0
2022/12/25 08:50:00,79.7,-0.3
2022/12/25 09:00:00,79.7, 0.0
2022/12/25 09:10:00,79.7, 0.0
2022/12/25 09:20:00,79.7,-0.1
2022/12/25 09:30:00,79.7, 0.1
2022/12/25 09:40:00,79.6,-0.1
2022/12/25 09:50:00,79.5, 0.7
2022/12/25 10:00:00,79.4, 0.8
2022/12/25 10:10:00,79.1, 0.8
2022/12/25 10:20:00,78.8, 0.7
2022/12/25 10:30:00,78.7, 0.7
2022/12/25 10:40:00,78.7, 0.7
2022/12/25 10:50:00,78.7, 0.5
2022/12/25 11:00:00,78.6, 0.4
2022/12/25 11:10:00,78.6, 0.8
2022/12/25 11:20:00,78.6, 1.6
2022/12/25 11:30:00,78.5, 1.7
2022/12/25 11:40:00,78.4, 3.0
2022/12/25 11:50:00,78.3, 3.7
2022/12/25 12:00:00,78.2, 3.4
2022/12/25 12:10:00,78.1, 4.2
2022/12/25 12:20:00,78.0, 3.1
2022/12/25 12:30:00,78.0, 5.5
2022/12/25 12:40:00,77.8, 4.0
2022/12/25 12:50:00,77.6, 3.1
2022/12/25 13:00:00,77.2, 4.8
2022/12/25 13:10:00,76.8, 5.2
2022/12/25 13:20:00,76.7, 3.3
2022/12/25 13:30:00,76.7, 2.2
2022/12/25 13:40:00,76.4, 1.8
2022/12/25 13:50:00,76.3, 1.7
2022/12/25 14:00:00,76.0, 1.8
2022/12/25 14:10:00,75.8, 1.6
2022/12/25 14:20:00,75.6, 1.7
2022/12/25 14:30:00,75.4, 1.2
2022/12/25 14:40:00,75.3, 1.1
2022/12/25 14:50:00,75.2, 0.9
2022/12/25 15:00:00,75.3, 0.8
2022/12/25 15:10:00,75.2, 0.9
2022/12/25 15:20:00,75.1, 0.8
2022/12/25 15:30:00,74.8, 0.6
2022/12/25 15:40:00,74.9, 0.4
2022/12/25 15:50:00,75.5, 0.4
2022/12/25 16:00:00,75.5, 0.1
2022/12/25 16:10:00,75.2, 0.1
2022/12/25 16:20:00,75.8, 0.2
2022/12/25 16:30:00,76.1,-0.1
2022/12/25 16:40:00,76.1, 0.0
2022/12/25 16:50:00,75.9,-0.1
2022/12/25 17:00:00,75.8, 0.1
2022/12/25 17:10:00,75.7, 0.0
2022/12/25 17:20:00,75.9, 0.0
2022/12/25 17:30:00,75.9, 0.2
2022/12/25 17:40:00,75.9, 0.2
2022/12/25 17:50:00,75.7,-0.1
2022/12/25 18:00:00,75.5, 0.1
2022/12/25 18:10:00,75.5, 0.2
2022/12/25 18:20:00,75.5, 0.1
2022/12/25 18:30:00,75.3,-0.1
2022/12/25 18:40:00,75.9, 0.0
2022/12/25 18:50:00,76.4,-0.1
2022/12/25 19:00:00,76.8,-0.2
2022/12/25 19:10:00,76.7, 0.2
2022/12/25 19:20:00,76.7, 0.0
2022/12/25 19:30:00,76.8, 0.2
2022/12/25 19:40:00,76.7,-0.1
2022/12/25 19:50:00,76.6, 0.0
2022/12/25 20:00:00,76.3, 0.1
2022/12/25 20:10:00,76.0, 0.1
2022/12/25 20:20:00,76.0, 0.3
2022/12/25 20:30:00,75.9, 0.1
2022/12/25 20:40:00,75.6, 0.0
2022/12/25 20:50:00,75.3,-0.2
2022/12/25 21:00:00,75.1, 0.0
2022/12/25 21:10:00,74.4, 0.0
2022/12/25 21:20:00,74.3, 0.0
2022/12/25 21:30:00,75.0,-0.3
2022/12/25 21:40:00,75.8,-0.4
2022/12/25 21:50:00,75.9,-0.3
2022/12/25 22:00:00,76.0,-0.1
2022/12/25 22:10:00,75.9,-0.4
2022/12/25 22:20:00,76.0,-0.3
2022/12/25 22:30:00,76.2,-0.4
2022/12/25 22:40:00,76.2,-0.8
2022/12/25 22:50:00,76.1,-0.6
2022/12/25 23:00:00,76.0,-0.7
2022/12/25 23:10:00,75.8,-0.9
2022/12/25 23:20:00,75.9,-1.0
2022/12/25 23:30:00,76.2,-1.0
2022/12/25 23:40:00,76.0,-1.0
2022/12/25 23:50:00,75.9,-1.1
